SCP
0 0 0 0 0 0 0 0 0 0 0 0 0 0 0 0 0 0 0 0 0 0 0 0 0 0 0 0 0 0 0 0 0 0 -0 -0 0 0 0 0 0 0 0 0
0 0 0 0 0 0 0 0 0 0 0 0 0 0 0 0 0 0 0 0 0 0 0 0 0 0 0 0 0 0 0 0 0 0 -0 0 0 0 0 0 0 0 0 0
0 0 0 0 0 0 0 0 0 0 0 0 0 0 0 0 0 0 0 0 0 0 0 0 0 0 0 0 0 0 0 0 0 0 0 0 0 0 0 0 0 0 0 0
0 0 0 0 0 0 -0 0 0 0 0 0 0 0 -0 -0 0 0 0 0 0 0 0 0 0 0 0 0 0 0 0 0 0 0 0 0 0 0 0 0 0 0 0 0
0 0 0 0 0 0 -0 0 0 0 0 0 0 0 0 0 0 0 0 0 0 0 0 0 0 0 0 0 0 0 0 0 0 0 0 0 0 0 0 0 0 0 0 0
0 0 0 0 0 0 -0 0 0 0 0 0 0 0 0 0 0 0 0 0 0 0 0 0 0 0 0 0 0 0 0 0 0 0 0 0 0 0 0 0 0 0 0 0
0 0 0 -0 -0 -0 -0 -0 0 0 0 0 0 0 0 0 0 0 0 0 0 0 0 0 0 0 0 0 0 0 0 0 0 0 0 0 0 0 0 0 0 0 0 0
0 0 0 -0 -0 -0 -0 0 0 0 0 0 0 0 0 0 0 0 0 0 0 0 0 0 0 -0 0 0 0 0 0 0 0 0 0 0 0 0 0 0 0 0 0 0
-0 -0 -0 0 0 0 0 0 0 0 0 0 0 0 0 0 0 0 0 0 0 0 0 0 -0 -0 0 0 0 0 0 -0 0 0 0 0 0 0 0 0 0 0 0 0
-0 -0 -0 0 0 0 0 0 0 0 0 0 0 0 0 0 0 0 0 0 0 0 0 -0 -0 -0 -0 0 0 0 -0 -0 0 0 -0 0 0 0 0 0 0 0 0 0
-0 -0 -0 0 0 0 0 0 0 0 0 0 0 0 0 0 0 0 0 0 0 0 0 0 0 0 0 -0 0 0 0 0 0 -0 -0 0 0 0 0 0 0 0 0 0
0 0 0 0 0 0 0 0 0 0 0 0 0 0 0 0 0 0 0 0 0 0 0 0 0 0 0 0 0 0 0 0 0 -0 0 0 0 0 0 0 0 0 0 0
0 0 0 0 0 0 0 0 0 0 0 0 0 0 0 0 0 0 0 0 0 0 0 0 0 0 0 0 0 0 0 0 0 0 0 0 0 0 0 0 0 0 0 0
0 0 0 0 0 0 0 0 0 0 0 0 0 0 0 0 0 0 0 0 0 0 0 0 0 0 0 0 0 0 0 0 0 0 0 0 0 0 0 0 0 0 0 0
0 0 0 0 0 0 0 0 0 0 0 0 0 0 0 0 0 0 0 0 0 0 0 0 0 -0 -0 -0 0 0 0 0 0 0 0 0 0 0 0 0 0 0 0 0
0 0 0 0 0 0 0 0 0 0 0 0 0 0 0 0 0 0 0 0 0 0 0 0 0 0 -0 -0 0 0 0 0 0 0 0 0 0 0 0 0 0 0 0 0
0 0 0 0 0 0 0 0 0 0 0 0 0 0 0 0 0 0 0 0 0 0 0 0 0 0 0 0 -0 0 0 0 0 0 0 0 0 0 0 0 0 0 0 0
0 0 0 0 0 0 0 0 0 0 0 0 0 0 0 0 0 0 0 0 0 0 0 0 0 0 0 0 0 0 0 0 0 0 0 0 0 0 0 0 0 0 0 0
0 0 0 0 0 0 0 0 0 0 0 0 0 0 0 0 0 0 0 0 0 0 0 0 0 0 0 0 0 0 0 0 0 0 0 0 0 0 0 0 0 0 0 0
0 0 0 0 0 0 0 0 0 0 0 0 0 0 0 0 0 0 0 0 0 0 0 0 0 0 0 0 0 0 0 0 0 0 0 0 0 0 0 0 0 0 0 0
0 0 0 0 0 0 0 0 -0 -0 0 0 0 0 0 0 0 0 0 0 0 0 0 0 0 0 0 0 0 0 0 0 0 0 0 0 0 0 0 0 0 0 0 0
0 0 0 0 0 0 0 0 -0 -0 0 0 0 0 0 0 0 0 0 0 0 0 0 0 0 0 0 0 0 0 0 0 0 0 0 0 0 0 0 0 0 0 0 0
0 0 -0 -0 -0 -0 0 0 0 0 0 0 0 0 0 0 0 0 0 0 0 0 0 0 0 0 0 0 0 0 0 0 0 0 0 0 0 0 0 0 0 0 0 0
0 0 0 -0 -0 -0 0 0 0 0 0 0 0 0 0 0 0 0 0 0 0 0 0 0 0 0 0 0 0 0 0 0 0 0 0 0 0 0 0 0 0 0 0 0
0 0 0 0 0 0 0 0 0 0 0 0 0 0 0 0 0 0 0 0 0 0 0 0 0 0 0 0 0 0 0 0 0 0 0 0 0 0 0 0 0 0 0 0
0 0 0 0 0 0 0 0 0 0 0 0 0 0 0 0 0 0 0 0 0 0 0 0 0 0 0 0 0 0 0 0 0 0 0 0 0 0 0 0 0 0 0 0
0 0 0 0 0 0 0 0 0 0 0 0 0 0 0 0 0 0 0 0 0 0 0 0 0 0 0 0 0 0 0 0 0 0 0 0 0 0 0 0 -0 -0 0 0
Wind_Speed
6 5 4 6 7 7 8 9 9 10 11 13 8 7 5 4 3 3 3 3 3 3 3 3 3 2 2 2 2 2 3 3 3 2 2 2 2 1 1 1 1 1 1 0
5 4 5 8 9 9 10 9 10 10 15 11 6 4 4 4 4 5 5 5 4 4 4 4 4 3 2 2 2 2 3 3 2 2 2 2 2 2 2 1 1 1 1 0
4 3 3 9 10 11 8 8 8 12 13 5 4 5 5 5 5 6 6 6 5 5 5 5 4 4 4 3 2 3 3 3 2 3 2 2 2 2 2 1 1 0 0 1
2 1 8 8 2 6 8 8 8 8 7 5 6 6 5 5 5 6 5 5 5 4 4 3 3 3 3 2 3 3 3 3 3 3 3 2 2 2 1 1 1 1 1 1
2 4 9 7 3 4 5 7 7 10 9 6 4 4 5 5 5 5 5 5 4 4 4 3 3 3 3 3 3 3 3 3 4 4 3 3 3 2 2 1 1 1 1 1
3 4 7 6 3 1 2 6 4 6 7 5 1 2 6 3 3 3 3 2 2 2 2 2 3 3 3 3 3 4 4 3 3 4 4 4 4 2 2 2 2 1 1 1
5 6 9 5 2 2 3 6 3 3 4 3 5 6 5 4 2 2 2 2 1 2 2 3 3 3 3 3 4 4 3 2 3 3 4 3 3 2 2 2 1 1 1 2
4 5 9 2 3 5 6 3 2 3 3 4 5 5 4 3 3 2 2 2 1 1 2 2 2 3 4 4 4 2 2 3 3 3 3 3 3 2 2 2 2 2 2 2
8 8 5 4 5 5 3 4 4 4 4 3 4 5 4 3 3 2 2 2 2 2 2 2 2 3 5 4 3 3 3 3 3 2 2 3 3 3 2 2 2 2 2 2
5 8 6 6 6 5 5 6 5 5 5 4 5 5 5 4 3 3 3 3 2 2 2 3 3 3 4 4 3 3 3 3 3 3 2 2 2 3 3 3 3 2 2 2
6 7 6 6 6 7 6 6 6 5 5 5 5 5 5 4 4 4 3 3 2 3 3 4 3 3 3 3 3 3 3 3 3 3 3 3 3 3 4 4 4 4 3 3
8 6 5 7 5 5 6 6 7 6 6 5 5 6 5 5 4 3 3 3 3 3 3 4 3 3 3 3 4 4 3 3 3 2 3 3 2 2 4 5 6 7 6 5
7 5 6 7 6 5 6 7 6 6 6 6 5 4 4 4 4 4 4 4 4 4 4 3 3 3 3 3 3 4 4 3 2 3 3 3 3 3 2 2 4 5 5 5
6 4 6 6 7 6 6 6 5 4 4 5 4 4 4 4 4 4 5 5 4 4 3 3 3 4 3 2 3 3 3 3 3 3 3 3 3 3 3 2 2 2 3 5
6 6 7 7 6 5 4 4 4 5 5 4 3 4 4 5 5 5 4 3 3 3 3 3 3 4 2 2 3 3 3 2 2 2 2 2 2 2 2 2 2 2 1 2
6 5 5 6 7 6 5 5 5 6 5 5 5 5 5 5 5 4 3 3 3 4 4 3 4 3 2 2 3 2 2 3 3 2 2 2 2 2 2 2 2 2 2 2
4 5 5 6 7 7 6 6 6 7 6 6 5 4 3 3 3 3 3 3 3 3 3 3 3 2 2 3 3 2 2 2 3 2 2 2 2 2 2 2 2 2 3 3
7 7 7 7 7 8 7 6 6 6 6 5 4 3 3 4 4 4 3 1 1 2 2 2 2 2 2 2 2 2 2 2 2 2 2 2 2 2 2 2 2 3 2 3
5 6 6 7 6 6 7 6 6 5 5 4 4 4 4 4 4 3 2 1 2 2 2 2 2 1 2 2 2 2 2 2 2 2 2 2 2 1 2 2 2 2 2 2
5 5 5 6 5 5 6 5 4 4 4 3 3 3 3 3 2 2 2 2 2 2 2 2 2 2 2 2 2 2 2 2 2 2 1 1 1 1 1 2 2 2 2 2
5 5 5 5 5 4 4 4 3 4 4 3 3 4 3 2 2 2 1 1 2 1 2 2 1 1 1 2 3 2 2 2 2 2 2 1 1 1 1 2 2 2 2 2
4 4 4 4 4 4 4 2 2 3 2 2 2 2 2 1 1 1 1 2 2 2 0 1 1 2 2 2 2 2 2 2 2 1 1 1 1 1 1 2 2 2 2 2
4 4 4 4 4 4 3 2 1 1 2 2 2 2 2 2 2 1 1 1 1 1 1 1 1 2 3 2 2 2 2 2 1 1 1 1 1 1 1 2 2 2 2 2
4 3 3 3 2 2 2 3 2 1 1 1 1 1 2 1 0 1 1 1 1 1 1 2 3 3 4 2 2 2 1 1 1 1 1 1 0 1 1 1 1 2 2 2
3 3 2 2 2 2 2 2 1 1 1 1 1 1 0 1 1 1 1 1 2 2 2 2 4 4 3 2 2 2 1 1 1 1 1 0 0 0 1 1 1 2 2 2
3 3 2 2 2 2 1 1 1 1 1 1 1 1 1 1 2 2 2 2 3 4 3 2 2 3 2 2 2 2 2 1 1 1 1 1 1 1 1 1 2 2 2 2
2 2 2 2 2 1 1 1 0 0 0 0 1 1 1 2 2 2 2 2 2 3 3 2 2 2 2 2 2 2 2 2 2 1 1 1 1 1 1 1 2 2 2 2
Wind_Direction
255 266 242 240 237 218 217 215 220 245 251 263 264 262 264 259 250 244 245 243 238 237 239 235 231 222 205 199 183 173 170 183 196 183 165 156 150 150 138 136 144 151 136 106
275 270 257 262 248 228 236 237 240 257 266 262 265 264 263 251 240 241 244 244 244 240 235 232 229 227 220 212 195 171 182 200 192 165 162 164 164 158 145 134 115 115 130 196
269 295 312 265 232 213 220 222 211 234 251 273 278 267 256 253 244 239 242 241 237 234 232 231 225 214 213 215 187 177 192 197 185 175 175 176 169 158 157 152 132 143 208 207
259 26 246 249 218 202 217 237 227 246 263 261 258 271 264 244 233 245 244 241 236 230 235 236 226 215 207 192 181 185 193 195 189 181 185 177 169 178 181 166 170 200 230 239
187 236 272 288 263 189 203 260 235 238 258 270 288 314 290 250 228 236 240 237 232 228 226 224 220 206 189 190 186 189 202 204 197 186 185 182 190 197 189 177 198 215 206 208
185 215 248 263 286 240 130 281 265 225 250 266 315 293 280 286 258 252 261 247 232 224 213 217 224 189 183 198 193 209 214 209 198 187 188 194 199 199 193 190 207 209 227 222
210 234 260 266 278 123 170 260 294 238 246 223 216 233 269 297 293 271 276 271 237 214 218 225 211 179 193 207 219 221 207 197 197 196 196 195 195 193 186 192 195 213 242 251
185 218 254 236 140 189 231 278 300 284 261 243 252 274 287 286 285 292 296 285 251 233 256 252 206 185 204 224 227 206 190 195 201 200 201 191 181 192 189 183 193 217 234 259
198 220 248 192 213 244 262 277 282 278 279 266 265 272 278 279 278 274 260 262 249 220 254 269 232 198 213 232 208 189 190 203 204 202 204 194 186 190 190 188 199 217 223 242
250 261 260 254 260 271 261 259 267 267 271 260 260 267 269 273 276 274 266 258 247 221 239 258 245 223 223 222 198 184 196 207 205 196 201 197 196 194 194 197 205 215 222 234
253 270 289 266 241 254 265 267 268 267 258 251 251 262 260 265 269 267 269 263 242 230 239 252 249 239 234 217 188 187 198 204 206 204 202 200 203 206 207 212 207 208 217 219
235 237 233 264 267 262 262 266 266 268 272 261 237 251 261 262 261 260 263 260 255 248 248 253 249 247 244 217 191 187 196 205 205 203 203 198 199 225 232 226 233 233 234 233
244 257 249 268 277 269 265 269 270 260 257 264 259 245 249 259 263 261 260 254 246 246 247 247 246 251 247 218 195 194 201 204 202 203 199 193 194 200 226 243 242 242 246 251
255 266 272 267 268 274 270 272 273 273 265 257 257 254 247 254 260 258 256 255 251 247 247 240 238 249 245 208 194 202 207 210 202 197 191 192 197 202 205 209 230 255 255 258
256 244 251 272 281 285 284 285 288 285 282 278 264 253 249 251 256 259 261 257 251 249 247 238 239 252 235 196 191 196 195 192 185 180 182 186 189 193 200 208 220 240 261 264
271 270 266 270 275 280 282 277 273 275 275 272 271 266 261 255 257 263 257 233 227 242 244 237 240 240 207 188 182 183 191 190 177 169 169 175 181 188 196 204 214 226 238 246
266 276 277 280 278 277 271 264 261 265 268 267 265 269 271 267 265 263 263 254 243 246 240 230 233 228 204 188 181 181 173 180 181 173 175 181 185 194 201 204 214 230 244 246
237 247 252 259 267 273 277 273 267 263 262 264 267 258 252 247 249 257 259 264 288 285 259 233 215 202 196 183 177 170 165 167 169 173 175 183 189 194 200 208 218 233 251 260
263 262 265 266 265 263 267 270 268 265 265 258 251 249 249 250 248 245 225 212 227 256 261 226 207 181 188 190 173 158 161 164 168 172 175 195 201 198 203 212 224 233 238 243
279 279 278 279 277 266 266 269 269 268 262 246 242 246 253 252 235 214 206 233 238 236 226 215 188 180 187 187 169 158 163 164 166 168 174 184 193 205 211 218 226 235 239 241
290 292 294 293 293 287 274 266 262 267 267 244 229 230 237 242 212 184 181 251 266 225 213 201 167 175 187 174 159 149 156 160 165 171 180 191 199 210 218 225 232 237 239 244
292 292 294 296 299 299 294 278 262 265 268 256 233 207 194 202 200 201 224 228 233 235 202 160 162 179 166 147 137 144 151 158 163 166 178 188 196 210 226 234 240 246 245 245
289 287 289 293 292 292 301 299 279 254 247 241 213 196 194 197 192 188 245 244 210 199 110 138 153 143 130 113 112 122 133 144 156 169 176 184 197 210 222 237 246 247 250 256
298 295 294 297 302 304 310 316 322 314 290 287 212 179 165 160 229 240 202 194 180 117 99 124 119 114 105 91 100 105 116 128 140 145 143 152 187 218 232 242 255 260 259 260
303 301 308 317 316 300 294 313 350 18 36 42 40 44 98 167 174 149 114 123 126 94 85 98 98 93 85 87 92 91 89 91 100 104 100 98 228 269 269 270 269 269 269 267
305 300 298 293 285 289 297 305 324 337 33 47 30 41 58 75 88 89 86 82 85 85 75 69 72 75 75 81 83 79 71 59 52 58 57 42 23 359 318 299 287 280 277 276
310 311 318 326 324 319 311 303 295 314 330 114 72 54 69 78 80 80 79 77 77 72 67 63 61 62 66 69 69 63 54 48 45 42 34 18 1 336 316 304 297 295 292 288